TimeEST,TemperatureF,Dew PointF,Humidity,Sea Level PressureIn,VisibilityMPH,Wind Direction,Wind SpeedMPH,Gust SpeedMPH,PrecipitationIn,Events,Conditions,WindDirDegrees,DateUTC
12:53 AM,57.0,52.0,83,30.09,7.0,NW,6.9,-,N/A,,Overcast,320,2012-12-12 05:53:00
1:53 AM,57.0,50.0,77,30.10,10.0,NW,5.8,-,N/A,,Overcast,320,2012-12-12 06:53:00
2:53 AM,55.0,51.1,86,30.11,6.0,NW,5.8,-,0.05,Rain,Light Rain,310,2012-12-12 07:53:00
3:35 AM,55.4,51.8,88,30.10,10.0,NNW,5.8,-,0.00,,Overcast,340,2012-12-12 08:35:00
3:53 AM,55.0,50.0,83,30.09,10.0,NNW,5.8,-,0.00,,Overcast,330,2012-12-12 08:53:00
4:53 AM,54.0,48.9,83,30.10,10.0,NNW,6.9,-,N/A,,Overcast,330,2012-12-12 09:53:00
5:53 AM,53.1,48.0,83,30.10,10.0,NNW,8.1,-,N/A,,Overcast,340,2012-12-12 10:53:00
6:53 AM,53.1,48.0,83,30.12,10.0,NNE,3.5,-,N/A,,Overcast,20,2012-12-12 11:53:00
7:53 AM,53.1,48.9,86,30.11,10.0,NE,4.6,-,0.00,,Overcast,40,2012-12-12 12:53:00
8:53 AM,53.1,50.0,89,30.15,5.0,NNW,3.5,-,0.02,Rain,Light Rain,330,2012-12-12 13:53:00
9:53 AM,54.0,51.1,90,30.16,10.0,NNE,5.8,-,0.00,,Overcast,30,2012-12-12 14:53:00
10:45 AM,55.4,51.8,88,30.15,10.0,North,6.9,-,N/A,,Overcast,10,2012-12-12 15:45:00
10:49 AM,55.4,51.8,88,30.16,10.0,North,8.1,-,N/A,,Overcast,10,2012-12-12 15:49:00
10:53 AM,55.9,52.0,87,30.16,10.0,North,8.1,-,N/A,,Overcast,360,2012-12-12 15:53:00
11:53 AM,57.0,52.0,83,30.15,10.0,Calm,Calm,-,N/A,,Overcast,0,2012-12-12 16:53:00
12:24 PM,57.2,51.8,82,30.13,10.0,North,4.6,-,N/A,,Overcast,350,2012-12-12 17:24:00
12:53 PM,57.0,52.0,83,30.14,10.0,NW,6.9,-,N/A,,Overcast,320,2012-12-12 17:53:00
1:53 PM,55.0,52.0,89,30.15,8.0,WNW,10.4,-,0.00,,Overcast,290,2012-12-12 18:53:00
2:07 PM,55.4,51.8,88,30.14,2.5,NNW,6.9,-,0.03,Rain,Rain,340,2012-12-12 19:07:00
2:14 PM,53.6,51.8,94,30.13,3.0,North,6.9,-,0.03,Rain,Light Rain,10,2012-12-12 19:14:00
2:51 PM,53.6,51.8,94,30.13,10.0,North,4.6,-,0.05,,Overcast,360,2012-12-12 19:51:00
2:53 PM,54.0,52.0,93,30.13,10.0,North,4.6,-,0.05,,Overcast,350,2012-12-12 19:53:00
3:05 PM,53.6,51.8,94,30.12,10.0,North,8.1,-,N/A,,Overcast,10,2012-12-12 20:05:00
3:53 PM,53.1,51.1,93,30.13,4.0,NNE,6.9,-,0.00,Rain,Light Rain,30,2012-12-12 20:53:00
4:53 PM,52.0,50.0,93,30.16,8.0,North,10.4,-,0.01,Rain,Light Rain,360,2012-12-12 21:53:00
5:53 PM,52.0,50.0,93,30.14,8.0,NNE,5.8,-,0.02,Rain,Light Rain,20,2012-12-12 22:53:00
6:53 PM,52.0,50.0,93,30.14,6.0,NE,8.1,-,0.05,Rain,Light Rain,50,2012-12-12 23:53:00
7:53 PM,51.1,50.0,96,30.12,7.0,ENE,10.4,-,0.04,Rain,Light Rain,70,2012-12-13 00:53:00
8:53 PM,51.1,48.9,92,30.11,7.0,ENE,13.8,-,0.03,Rain,Light Rain,70,2012-12-13 01:53:00
9:53 PM,51.1,48.9,92,30.16,10.0,North,5.8,-,0.04,Rain,Light Rain,10,2012-12-13 02:53:00
10:53 PM,50.0,48.0,93,30.16,10.0,NNE,8.1,-,0.01,Rain,Light Rain,20,2012-12-13 03:53:00
11:53 PM,50.0,48.0,93,30.20,10.0,NNW,8.1,-,0.01,,Overcast,340,2012-12-13 04:53:00